Weather Roundup
Issued by NWS

Home | Current Version | Previous Version | Graphics & Text | Print | Product List | Glossary Off
Versions: 1 2 3 4 5 6 7 8 9 10 11 12 13 14 15 16 17 18 19 20 21 22 23 24 25 26 27 28 29 30 31 32 33 34 35 36 37 38 39 40 41 42 43 44 45 46 47 48 49 50

000
NZUS93 KARX 182310
HRRWXR

CURRENT HOURLY OBSERVATIONS ACROSS
MUCH OF THE UPPER MISSISSIPPI VALLEY
NATIONAL WEATHER SERVICE LA CROSSE WI
600 PM CDT SAT APR 18 2015


...SOUTHEAST MINNESOTA...


CITY           SKY/WX    TMP DP  RH WIND       PRES   REMARKS
ROCHESTER      CLOUDY    68  42  38 E20       29.92F
ROCHESTER/MAYO FAIR      69  39  33 E9G21     29.92F
WINONA         PTSUNNY   70  37  30 SE10G18   29.95F
AUSTIN         CLOUDY    70  45  40 E18       29.88F
ALBERT LEA     RAIN      59  57  94 SW7       29.91R
DODGE CENTER   CLOUDY    70  39  32 E20       29.91S
PRESTON        CLOUDY    68  39  34 E18       29.93F
OWATONNA       CLOUDY    72  39  30 E12       29.89F
FARIBAULT      CLOUDY    72  39  30 E14       29.90F
$$

...ELSEWHERE IN MINNESOTA...


CITY           SKY/WX    TMP DP  RH WIND       PRES   REMARKS
MINNEAPOLIS    CLOUDY    70  35  27 NE14      29.92F
INTNL FALLS    PTSUNNY   61  16  17 SE14G28   30.01F
DULUTH         SUNNY     47  30  51 E17G26    30.08F
RED WING       PTSUNNY   72  36  26 SE13G18   29.91F
REDWOOD FALLS  CLOUDY    66  47  50 SW6       29.87F
MANKATO        CLOUDY    70  43  37 N3        29.89R
WORTHINGTON    CLOUDY    55  52  88 E14       29.87F
FAIRMONT       CLOUDY    57  50  77 E13       29.88F
$$

...SOUTHWEST WISCONSIN...


CITY           SKY/WX    TMP DP  RH WIND       PRES   REMARKS
LA CROSSE      PTSUNNY   71  38  29 E14       29.95F
PRAIRIE DU CHI PTSUNNY   71  34  26 E18G26    29.93F
BOSCOBEL       MOSUNNY   71  36  27 NE13G20   29.96F
LONE ROCK      MOSUNNY   67  33  28 E15       29.99F
PLATTEVILLE    MOSUNNY   71  35  27 E18G25    29.96F
FORT MC COY    MOSUNNY   66  28  23 E17       30.01F
CAMP DOUGLAS   PTSUNNY   63  27  25 E16       30.02F
VIROQUA        FAIR      67  36  31 E17       29.98F
WIS DELLS      SUNNY     64  28  25 E14       30.03F
$$

...ELSEWHERE IN WISCONSIN...


CITY           SKY/WX    TMP DP  RH WIND       PRES   REMARKS
MILWAUKEE      MOSUNNY   45  33  63 N21G30    30.09S
MADISON        PTSUNNY   67  30  25 E16       30.02F
GREEN BAY      MOSUNNY   54  28  36 NE17      30.12F
EAU CLAIRE     CLOUDY    67  29  24 E13       30.00S
BLACK RVR FLS  FAIR      68  27  21 E13G21    30.00F
MEDFORD        PTSUNNY   58  20  23 E8        30.07F
WAUSAU         MOSUNNY   59  17  19 E16G22    30.08S
WIS RAPIDS     MOSUNNY   62  20  19 SE17      30.07F
MARSHFIELD     MOSUNNY   61  29  29 E15G23    30.06F
RICE LAKE      CLOUDY    65  31  28 E12       30.02F
$$

...NORTHEAST IOWA...


CITY           SKY/WX    TMP DP  RH WIND       PRES   REMARKS
DECORAH        PTSUNNY   70  39  32 E16G26    29.92S
MASON CITY     CLOUDY    60  32  34 W12       29.91R
CHARLES CITY   CLOUDY    72  45  37 SE10G23   29.90R
OELWEIN        CLOUDY    72  43  35 E24G31    29.89S
$$

...ELSEWHERE IN IOWA...


CITY           SKY/WX    TMP DP  RH WIND       PRES   REMARKS
DES MOINES     LGT RAIN  64  60  87 SW6       29.87R
IOWA CITY      PTSUNNY   72  55  55 E14G22    29.88S
FORT DODGE     CLOUDY    57  55  94 NW6       29.87F
$$

...NORTHERN ILLINOIS...


CITY           SKY/WX    TMP DP  RH WIND       PRES   REMARKS
CHICAGO-OHARE  PTSUNNY   53  34  48 NE14      30.03S
CHICAGO-MIDWAY PTSUNNY   56  36  47 NE10      30.03S
MOLINE         PTSUNNY   74  54  49 E14       29.89F
ROCKFORD       PTSUNNY   70  39  32 E16G22    29.99F
PEORIA         PTSUNNY   79  47  32 SE9       29.89F
$$

NOTE: "FAIR" INDICATES FEW OR NO CLOUDS BELOW 12,000 FEET WITH NO
SIGNIFICANT WEATHER AND/OR OBSTRUCTIONS TO VISIBILITY. WIND
SPEEDS ARE IN MILES-PER-HOUR.



USA.gov is the U.S. government's official web portal to all federal, state and local government web resources and services.